Torna al catalogo

STARLINK-33642

AttivoComunicazioniVLEO
NORAD 63978·PAYLOAD·🇺🇸 United States

Lanciato May 13, 2025 da Cape Canaveral Space Force Station

Loading…

Prossimi Passaggi (prossime 24 ore)

TLE

AggiornatoSource: CelesTrak SupGP

Epoca: Sep 14, 2026, 21:39 UTC

1 63978C 25099AC  26257.90256944 -.00012315  00000+0 -44599-3 0  2573
2 63978  42.9997 184.1092 0001149 264.2832 132.1479 15.27588125    14

Traccia STARLINK-33642 in tempo reale con AllMySat

Download on the App Store